sat.trackr.live / text

‹ back to catalog

UNKNOWN

NORAD 82961

UNKNOWN UNKNOWN UNKNOWN

§ Identity

Operator
Country
Launch date
Launch site
Launch vehicle
Mass (kg)
RCS (m²)

External: N2YO · Heavens-Above

§ Orbital elements

Epoch: 2026-05-23T21:04:04.044576Z

Period
108.50 min
Inclination
99.7739°
Eccentricity
0.0360155
Mean motion
13.27176679 rev/d
Perigee alt
886.0 km
Apogee alt
1,428.8 km
Semi-major
7,535.6 km
B*
9.8022e-3
RAAN
294.9868°
Arg perigee
342.2988°
Mean anomaly
16.5849°
Rev number
57,719

§ Raw data

UNKNOWN1 82961U          26143.87782459  .00006201  00000+0  98022-2 0  99932 82961  99.7739 294.9868 0360155 342.2988  16.5849 13.27176679577195

JSON: /api/v1/satellites/82961 · /tle

For live sub-satellite position, see the globe view (requires WebGL).

§ Visibility from observer

Set your observer location to see the next 7 days of passes ≥ 10°. The values pass through the URL so the page stays shareable.

No JS? Fill the form by hand. The geolocation button needs JavaScript.